Terminal Aerodrome Forecast
Issued by NWS

Home | Current Version | Previous Version | Text Only | Print | Product List | Glossary On
Versions: 1 2 3 4 5 6 7 8 9 10 11 12 13 14 15 16 17 18 19 20
000
FTAK31 PAJN 270520
TAFAYA
TAF
PAYA 270520Z 2706/2806 VRB04KT P6SM SCT050
     FM270900 00000KT P6SM BKN080
     FM271800 13005KT P6SM BKN050
     FM272100 19005KT P6SM BKN050
      AMD LTD TO CLD VIS AND WIND 2706/2709=

USA.gov is the U.S. government's official web portal to all federal, state and local government web resources and services.